Temperature
19 20 19 19 19 19 19 19 18 18 18 18 18 18 18 18 18 18 18 18 18 18 18 18 18 18 18 18 18 18 18 18 18 18 18 18 18 17 17 17 17 17 17
20 20 19 19 19 19 19 19 18 18 18 18 18 18 18 18 18 18 18 18 18 18 18 18 18 18 18 18 18 18 18 18 18 18 18 18 18 17 17 17 17 17 17
20 20 20 19 19 19 19 19 18 18 18 18 18 18 18 18 18 18 18 18 18 18 18 18 18 18 18 18 18 18 18 18 18 18 17 18 17 17 17 17 17 17 17
19 19 19 19 19 19 19 18 18 18 18 18 18 18 18 18 18 18 18 18 18 18 18 18 18 18 18 18 18 18 18 18 17 17 17 17 17 17 17 17 17 17 17
20 20 20 19 19 19 19 18 18 18 18 18 18 18 18 18 18 18 18 18 18 18 18 18 18 18 18 18 18 18 18 17 17 17 17 17 18 18 17 17 17 17 17
19 20 20 20 19 19 19 19 18 18 18 18 18 18 18 18 18 18 18 18 18 18 18 18 18 18 18 18 18 18 18 17 17 17 17 17 18 18 17 17 17 17 17
20 20 20 20 19 19 19 19 18 18 18 18 18 18 18 18 18 18 18 18 18 18 18 18 18 18 18 18 18 18 18 18 18 17 17 18 18 18 17 17 17 17 17
20 20 20 20 19 19 19 19 19 18 18 18 18 18 18 18 18 18 18 18 18 18 18 18 18 18 18 18 18 18 18 18 18 18 18 18 18 18 17 17 17 17 17
21 20 20 20 20 19 19 19 19 19 18 18 18 18 18 18 18 18 18 18 18 18 18 18 18 18 18 18 18 18 18 18 18 18 18 18 18 18 18 17 17 17 17
22 21 19 19 19 19 19 19 19 19 19 18 18 18 18 18 18 18 18 18 18 18 18 18 18 18 18 18 18 18 18 18 18 18 18 18 18 18 18 17 17 17 17
22 21 21 20 19 19 19 19 19 19 19 18 18 18 18 18 18 18 18 18 18 18 18 18 18 18 18 18 18 18 19 18 18 18 18 18 18 18 18 18 17 17 17
22 21 21 20 20 20 19 19 19 18 18 18 18 18 18 18 18 18 18 18 18 18 18 18 18 18 18 18 18 18 19 18 18 18 18 18 18 18 18 18 17 17 17
22 22 21 20 20 20 20 19 19 19 18 18 18 18 18 18 18 18 18 18 18 18 18 18 18 18 18 18 18 18 19 19 18 18 18 18 18 18 18 18 17 17 17
22 22 21 20 20 20 20 20 19 19 19 18 18 18 18 18 18 18 18 18 18 18 18 18 18 18 18 18 18 19 19 19 18 18 18 18 18 18 18 18 18 17 17
22 21 21 20 20 20 20 20 19 19 19 19 19 18 18 18 18 18 18 18 18 18 18 18 18 18 18 18 19 19 19 18 18 18 18 18 18 18 18 18 18 18 17
22 21 20 20 20 19 20 20 19 19 19 19 19 19 18 18 18 18 18 18 18 18 18 18 18 18 18 18 18 18 18 18 18 18 18 18 18 18 18 18 18 18 18
21 21 20 20 20 20 19 20 19 19 19 19 19 18 18 18 18 18 18 18 18 18 18 18 18 18 18 18 18 18 18 18 18 18 18 18 18 18 18 18 18 18 18
21 21 21 20 20 20 20 20 19 19 19 19 19 19 18 18 18 18 18 18 18 18 18 18 18 18 18 18 18 18 18 18 18 18 18 18 18 18 18 18 18 18 18
21 21 21 20 20 20 20 20 19 19 19 19 19 18 18 18 18 18 18 18 18 18 18 18 18 18 18 18 18 18 18 18 18 18 18 18 18 18 18 18 18 18 17
21 21 21 20 20 20 20 20 20 19 19 19 19 19 18 18 18 18 18 18 18 18 18 18 18 18 18 18 18 18 19 18 18 18 18 18 18 18 18 18 18 18 17
21 21 21 20 20 20 20 19 19 19 19 19 19 19 19 19 18 19 19 18 18 18 18 18 18 18 18 18 18 18 19 19 19 18 18 18 18 18 18 18 18 17 17
22 21 21 20 20 20 20 20 19 19 19 19 19 19 19 19 19 18 18 18 18 18 18 18 18 18 18 18 18 18 18 19 19 19 19 18 18 18 18 18 17 17 17
22 21 21 21 20 20 20 20 19 19 19 19 19 19 19 19 19 19 18 18 18 18 18 18 18 18 18 18 18 18 18 18 18 18 18 18 18 18 18 18 17 17 17
22 21 21 21 21 20 20 20 19 19 19 19 19 19 19 19 19 19 18 18 18 18 18 18 18 18 18 18 18 18 18 18 18 18 18 18 18 18 17 17 17 17 17
22 22 21 21 21 20 20 20 19 19 19 19 19 19 19 19 18 18 18 18 18 18 18 18 18 18 18 18 18 18 18 18 18 17 17 17 17 17 17 17 17 17 16
23 22 21 21 21 20 20 19 19 19 19 19 19 19 19 18 18 18 18 18 18 18 18 18 18 18 18 18 18 18 18 18 17 17 17 17 17 17 17 16 16 16 16
Wind_Speed
14 14 15 15 15 15 15 15 16 16 16 16 17 17 17 18 19 19 19 19 19 19 19 19 19 20 20 20 19 19 19 19 20 20 20 19 17 16 15 16 17 17 17
16 16 15 15 15 15 15 15 16 16 17 17 17 17 17 18 18 18 18 18 18 18 18 18 19 19 18 18 18 17 17 17 18 19 20 18 16 15 14 15 17 16 17
16 16 16 15 15 15 15 15 15 16 16 16 16 16 16 17 17 17 17 18 18 18 18 18 17 17 17 17 16 15 15 15 15 16 17 16 15 16 17 18 19 17 16
17 16 16 15 15 15 14 14 15 15 15 16 16 16 16 16 16 16 17 17 17 17 17 16 16 16 16 15 14 13 12 12 11 11 10 14 15 15 16 17 17 16 15
17 18 16 15 15 14 14 14 14 14 15 15 15 15 15 15 15 16 16 16 16 16 16 16 16 15 14 13 11 10 8 8 7 7 13 17 15 15 16 16 15 15 15
17 18 16 15 15 14 14 14 14 14 15 15 15 15 15 15 15 16 16 15 15 15 15 15 14 14 12 10 8 6 5 3 3 7 15 17 15 14 15 14 14 14 13
18 18 16 15 14 14 13 13 13 13 14 14 15 15 15 15 15 15 15 15 14 14 14 14 13 12 10 8 5 3 1 0 2 12 16 16 15 14 14 14 13 13 12
18 18 17 15 14 13 13 13 13 13 13 14 14 14 14 14 14 14 13 14 14 13 13 12 11 10 8 6 3 1 3 3 6 13 16 16 15 14 14 13 12 12 11
17 17 16 15 14 13 13 12 12 12 12 12 12 12 12 13 13 12 12 12 12 12 11 11 10 9 7 4 1 2 4 5 2 11 16 14 15 14 13 12 11 11 10
13 14 14 15 14 13 12 12 12 11 11 11 11 11 11 12 12 12 11 11 10 10 9 9 8 6 5 3 1 3 5 5 2 11 14 15 16 14 12 11 11 10 10
11 10 11 13 13 13 13 13 12 11 10 10 9 9 9 9 11 10 11 9 9 8 8 7 6 5 4 4 4 4 6 3 6 11 13 16 15 13 12 11 10 9 9
10 9 9 9 8 8 10 11 11 10 10 8 8 9 7 5 8 10 11 9 8 6 6 6 7 6 6 5 6 7 6 3 7 11 13 17 15 13 12 10 10 9 9
8 8 10 9 6 6 6 7 6 7 8 7 6 6 6 6 7 9 9 8 8 8 6 7 8 8 7 5 5 5 3 2 7 11 13 15 14 13 11 10 10 9 9
8 8 10 9 6 5 4 4 4 5 6 5 5 4 4 2 2 4 4 5 7 5 5 4 4 4 2 1 2 2 1 3 8 11 14 15 14 13 12 11 10 10 10
8 8 9 9 7 5 3 2 3 4 5 7 6 4 4 3 2 2 1 1 2 3 3 2 1 1 0 2 2 1 1 2 6 10 12 15 14 13 12 11 10 10 10
8 9 9 8 7 5 3 1 1 3 5 6 5 5 3 3 2 2 1 1 1 0 1 1 1 0 1 1 1 0 1 2 4 7 10 12 13 13 12 11 10 10 10
8 8 8 8 8 5 4 2 1 2 5 5 5 5 3 3 3 2 1 1 1 1 2 1 2 1 2 2 2 1 1 2 4 5 9 10 11 12 12 12 11 10 10
9 8 6 6 8 6 3 1 0 2 3 4 5 5 4 3 3 1 1 1 0 1 2 2 1 1 1 1 1 2 1 2 3 5 6 9 11 11 13 14 13 12 11
9 8 6 4 7 7 5 3 1 1 1 2 4 4 4 3 3 2 1 1 1 1 1 2 2 1 2 2 2 2 2 2 2 5 5 7 9 11 12 14 15 14 13
9 8 7 5 5 5 5 3 1 1 1 1 2 3 4 3 3 2 2 2 2 1 1 1 0 2 2 3 3 1 2 2 3 3 4 5 7 8 10 12 13 13 14
9 8 7 6 5 4 3 3 3 3 2 2 2 4 4 2 2 2 1 1 2 2 2 2 2 3 3 2 1 1 2 3 3 3 3 3 3 5 6 9 11 11 11
10 9 7 6 6 5 3 2 2 2 2 3 2 3 4 3 2 2 1 2 2 1 2 2 2 2 3 2 2 1 2 2 1 3 2 2 2 2 3 5 7 9 8
11 10 9 7 7 6 5 3 2 1 2 1 2 2 2 2 2 1 0 1 2 2 1 3 2 3 3 2 2 2 1 1 1 1 1 2 1 1 1 2 3 5 6
11 10 8 8 6 6 5 4 4 4 3 2 1 2 2 1 1 1 1 1 2 2 2 3 2 3 3 3 2 2 2 1 1 1 2 1 1 1 1 1 2 3 4
11 11 9 8 7 6 5 5 3 3 2 1 1 2 1 1 1 1 1 1 1 2 2 2 2 2 2 2 2 2 2 2 2 2 2 1 1 1 1 1 3 4 5
10 10 10 8 7 6 6 5 4 3 1 1 0 1 1 1 1 0 1 1 1 2 2 2 2 2 2 2 2 2 2 2 2 2 2 2 1 1 1 2 3 4 6
Wind_Direction
96 94 88 84 81 80 83 80 79 77 78 79 80 81 82 84 86 87 88 88 89 89 89 89 89 90 91 93 95 96 99 100 103 104 104 104 104 105 108 113 109 103 107
103 99 91 87 84 82 81 82 80 78 78 79 79 82 83 85 87 88 89 90 91 90 90 91 91 92 95 97 99 100 104 107 110 112 110 104 100 99 100 102 102 108 109
108 106 96 89 88 86 84 84 83 81 81 82 82 83 84 87 88 89 90 92 92 92 92 93 94 95 96 97 100 103 108 113 119 123 120 110 101 98 97 99 104 108 108
109 105 99 95 92 90 88 87 87 85 85 84 85 86 87 89 91 92 92 93 92 93 94 96 98 98 98 99 102 108 115 121 129 136 122 111 106 102 102 104 107 108 110
102 103 102 100 97 94 92 90 88 88 88 87 87 88 89 91 93 92 93 95 95 97 98 98 99 101 100 102 107 113 119 127 137 126 104 101 101 108 107 108 110 111 111
113 108 107 104 100 96 94 93 92 90 91 91 90 90 91 92 94 95 94 96 94 95 97 98 99 102 103 106 111 116 123 143 151 117 110 107 109 114 114 113 114 113 113
113 113 114 110 105 101 98 97 96 96 96 95 94 94 94 95 95 96 95 95 94 94 95 98 99 102 105 108 110 110 109 233 141 109 107 108 115 119 117 117 118 116 116
117 116 118 116 112 108 105 101 98 99 99 100 99 99 99 100 99 99 98 98 97 96 97 99 102 105 109 110 106 28 327 323 98 112 110 113 122 121 120 120 122 123 121
119 125 131 128 122 116 112 109 106 104 104 105 106 108 109 108 107 104 102 101 101 102 103 105 106 112 118 121 118 320 329 337 67 120 117 121 127 127 128 127 128 127 127
115 125 134 133 134 135 127 123 119 117 117 117 117 120 124 124 121 119 112 108 109 110 113 116 120 123 133 155 224 296 318 318 137 109 115 129 136 135 136 136 136 134 134
107 117 125 127 142 142 136 137 139 136 136 138 138 144 152 149 137 131 112 121 122 124 130 137 144 154 170 199 230 262 286 270 99 103 116 137 141 141 143 145 145 146 145
121 121 113 115 122 130 127 144 155 148 156 168 152 164 179 142 127 124 133 143 146 152 160 173 181 191 206 204 218 236 256 199 117 111 126 142 146 148 153 157 158 158 157
124 122 115 110 113 108 115 143 141 135 145 145 133 135 127 129 137 141 154 162 174 184 195 184 201 215 212 204 203 208 225 117 113 120 139 150 153 157 162 167 170 171 170
119 112 112 109 95 76 84 109 126 133 140 133 136 143 123 133 121 128 155 171 179 186 191 191 210 210 221 213 219 210 178 115 117 125 147 158 162 167 171 176 180 182 182
123 114 102 103 100 89 51 24 115 113 120 121 129 115 128 134 113 104 97 153 189 165 168 179 226 156 110 279 261 189 86 87 123 132 149 164 168 173 179 184 186 190 194
131 123 119 121 116 115 113 13 54 105 113 124 129 131 135 114 107 108 153 271 268 136 113 139 214 209 224 264 293 279 143 123 117 132 151 167 174 178 182 187 192 197 202
134 126 129 141 136 142 147 196 154 136 133 129 130 134 142 127 142 164 178 225 212 202 154 207 275 269 237 230 246 269 208 151 147 152 159 168 178 187 189 191 194 200 205
139 137 153 156 141 143 147 195 9 109 113 123 136 144 154 152 170 198 223 226 214 242 196 199 240 275 300 287 264 253 213 152 164 176 181 180 180 187 195 199 200 203 207
138 142 149 141 136 149 161 169 168 88 75 125 137 144 152 170 185 203 214 175 255 281 273 258 148 220 271 276 246 226 220 210 191 202 193 197 191 186 184 195 201 204 209
143 146 151 152 141 152 156 159 183 195 170 177 148 146 146 176 206 236 206 197 221 242 258 272 250 237 247 257 266 263 242 233 213 214 208 205 198 196 188 184 192 207 211
152 153 160 166 159 168 167 178 185 196 203 195 180 162 163 186 210 243 305 181 232 237 243 256 253 252 238 225 248 280 267 245 222 217 213 195 191 191 180 171 177 189 199
159 160 166 174 171 179 175 181 193 210 215 185 148 153 168 186 216 225 206 268 253 251 258 265 256 267 261 225 214 235 262 281 265 230 186 195 210 161 152 178 181 181 181
168 171 178 176 172 179 176 180 205 203 248 235 168 159 171 187 203 282 352 293 298 280 274 269 261 255 261 262 229 223 237 232 326 326 209 182 178 158 149 131 151 171 182
170 171 168 167 168 172 185 195 199 209 217 206 191 151 148 174 208 220 255 287 297 292 282 268 256 260 251 263 262 243 235 228 215 300 331 8 124 127 95 48 85 110 132
171 167 165 160 165 175 191 198 211 239 243 224 131 135 147 163 185 256 235 313 308 299 299 300 315 300 277 259 265 269 257 247 215 217 251 303 352 45 78 79 79 80 100
166 162 161 157 166 174 187 192 199 233 267 292 301 170 184 168 150 4 76 34 348 314 305 300 302 285 275 281 281 283 273 250 228 213 222 238 270 315 44 65 86 92 95
Height
1527 1527 1527 1527 1527 1526 1527 1527 1527 1527 1527 1528 1528 1528 1528 1529 1530 1530 1531 1532 1533 1534 1535 1535 1536 1538 1539 1540 1541 1543 1544 1546 1548 1550 1552 1553 1555 1556 1558 1559 1561 1562 1563
1528 1529 1529 1529 1529 1530 1530 1530 1530 1530 1531 1531 1531 1531 1532 1533 1533 1534 1535 1535 1536 1537 1538 1539 1540 1541 1542 1543 1545 1546 1547 1549 1551 1553 1554 1556 1557 1559 1560 1562 1563 1564 1565
1530 1530 1531 1531 1532 1532 1533 1533 1533 1533 1534 1534 1534 1535 1536 1536 1537 1538 1538 1539 1540 1540 1541 1542 1543 1544 1546 1547 1548 1549 1551 1552 1554 1555 1557 1558 1560 1561 1563 1564 1565 1566 1567
1532 1533 1533 1534 1534 1535 1535 1536 1536 1536 1537 1537 1538 1538 1539 1539 1540 1541 1541 1542 1543 1544 1544 1545 1546 1548 1549 1550 1551 1553 1554 1555 1557 1558 1560 1561 1562 1564 1565 1566 1567 1568 1569
1534 1535 1535 1536 1536 1537 1538 1538 1539 1539 1540 1540 1541 1541 1542 1542 1543 1543 1544 1545 1546 1547 1548 1548 1549 1550 1551 1553 1554 1555 1557 1558 1560 1561 1563 1564 1565 1566 1567 1568 1569 1570 1571
1536 1536 1537 1538 1538 1539 1540 1541 1541 1542 1542 1543 1544 1544 1545 1545 1546 1546 1547 1548 1549 1550 1551 1551 1552 1553 1554 1555 1557 1558 1560 1561 1562 1564 1565 1566 1567 1568 1568 1569 1570 1571 1573
1538 1538 1539 1540 1541 1541 1542 1543 1544 1544 1545 1546 1546 1547 1548 1548 1549 1549 1550 1551 1552 1552 1553 1554 1555 1556 1556 1558 1559 1561 1562 1563 1565 1566 1567 1567 1568 1569 1570 1571 1572 1573 1574
1540 1540 1541 1542 1543 1544 1544 1545 1546 1547 1547 1548 1549 1550 1550 1551 1552 1552 1553 1554 1555 1555 1556 1556 1557 1558 1559 1560 1561 1563 1564 1565 1567 1568 1568 1569 1570 1571 1571 1572 1573 1574 1575
1542 1542 1543 1544 1545 1546 1547 1548 1548 1549 1550 1551 1551 1552 1553 1554 1554 1555 1556 1556 1557 1558 1558 1559 1560 1561 1561 1562 1564 1565 1566 1567 1568 1569 1569 1570 1571 1572 1572 1573 1574 1575 1576
1544 1545 1546 1547 1547 1548 1549 1550 1551 1551 1552 1553 1554 1555 1555 1556 1557 1557 1558 1559 1559 1560 1561 1561 1562 1563 1564 1565 1566 1567 1568 1569 1570 1570 1570 1571 1572 1573 1573 1574 1575 1576 1577
1546 1548 1549 1550 1550 1551 1551 1552 1553 1553 1554 1555 1556 1557 1557 1558 1559 1560 1560 1561 1562 1562 1563 1564 1565 1565 1566 1567 1568 1569 1569 1570 1571 1571 1571 1572 1573 1573 1574 1575 1576 1577 1578
1547 1549 1551 1552 1553 1554 1555 1554 1555 1556 1556 1556 1558 1558 1559 1560 1561 1562 1562 1563 1563 1564 1565 1566 1566 1567 1568 1568 1569 1570 1570 1571 1571 1571 1572 1573 1573 1574 1575 1575 1576 1577 1578
1548 1550 1551 1553 1554 1555 1556 1556 1557 1558 1558 1559 1560 1561 1561 1562 1562 1563 1563 1564 1565 1565 1566 1567 1567 1568 1569 1570 1570 1571 1571 1572 1572 1571 1572 1573 1574 1574 1575 1576 1576 1577 1578
1549 1551 1552 1553 1554 1555 1557 1557 1558 1559 1559 1560 1561 1562 1562 1563 1564 1564 1565 1565 1566 1567 1567 1568 1569 1569 1570 1571 1571 1572 1572 1572 1572 1572 1572 1573 1574 1574 1575 1575 1576 1577 1578
1550 1551 1553 1553 1554 1555 1556 1557 1559 1560 1561 1561 1562 1562 1563 1564 1564 1565 1566 1566 1567 1568 1568 1569 1569 1570 1570 1571 1572 1572 1573 1573 1573 1572 1572 1573 1573 1574 1575 1575 1575 1576 1577
1550 1552 1553 1554 1555 1556 1557 1558 1559 1561 1561 1562 1562 1562 1563 1564 1565 1565 1566 1566 1567 1568 1569 1569 1569 1570 1570 1571 1571 1572 1572 1572 1572 1572 1572 1573 1573 1573 1574 1574 1575 1575 1576
1551 1552 1553 1554 1555 1556 1557 1559 1560 1561 1561 1562 1562 1563 1564 1564 1565 1565 1566 1566 1567 1568 1568 1569 1569 1569 1569 1570 1570 1571 1571 1571 1571 1571 1572 1572 1572 1572 1573 1573 1574 1574 1575
1550 1552 1553 1555 1555 1556 1557 1558 1560 1561 1561 1562 1562 1563 1563 1564 1564 1565 1565 1566 1567 1567 1567 1568 1568 1568 1569 1569 1569 1569 1570 1570 1570 1570 1571 1571 1571 1571 1571 1572 1572 1573 1573
1550 1551 1553 1555 1555 1556 1557 1558 1559 1560 1561 1562 1563 1563 1563 1564 1564 1564 1565 1565 1566 1566 1566 1567 1567 1567 1567 1568 1568 1568 1568 1568 1568 1569 1569 1570 1570 1570 1570 1570 1571 1571 1571
1549 1550 1552 1554 1555 1556 1557 1558 1559 1559 1560 1561 1562 1562 1563 1563 1564 1564 1564 1565 1565 1565 1565 1566 1566 1566 1566 1566 1566 1566 1566 1566 1567 1567 1567 1568 1568 1568 1568 1568 1568 1569 1569
1548 1549 1551 1553 1554 1555 1556 1557 1558 1559 1560 1561 1561 1562 1562 1562 1563 1563 1563 1563 1563 1564 1564 1564 1564 1564 1564 1565 1565 1565 1564 1565 1565 1565 1565 1566 1566 1566 1566 1566 1566 1566 1566
1546 1548 1550 1551 1553 1554 1555 1556 1557 1559 1560 1560 1561 1561 1561 1562 1562 1562 1562 1562 1562 1563 1563 1563 1563 1563 1563 1563 1563 1563 1563 1564 1563 1563 1563 1563 1564 1564 1564 1564 1564 1564 1564
1544 1546 1548 1549 1551 1553 1554 1555 1557 1558 1559 1560 1560 1560 1560 1561 1561 1561 1561 1561 1561 1561 1561 1561 1560 1561 1561 1561 1562 1562 1562 1561 1562 1562 1561 1561 1561 1562 1562 1563 1563 1562 1561
1542 1544 1546 1547 1549 1551 1553 1554 1555 1556 1557 1558 1559 1559 1559 1559 1559 1559 1559 1559 1558 1558 1558 1558 1558 1558 1558 1558 1559 1559 1560 1559 1560 1559 1560 1560 1560 1559 1560 1561 1561 1560 1559
1541 1543 1544 1546 1548 1549 1551 1553 1554 1555 1556 1557 1557 1557 1557 1557 1558 1558 1557 1557 1556 1556 1556 1556 1556 1555 1555 1555 1556 1556 1556 1557 1557 1557 1557 1558 1559 1558 1558 1558 1558 1558 1558
1539 1541 1543 1544 1546 1548 1549 1551 1552 1553 1555 1555 1555 1556 1556 1556 1556 1556 1556 1555 1555 1554 1554 1553 1553 1553 1552 1553 1553 1553 1554 1554 1554 1554 1555 1555 1556 1556 1556 1556 1556 1556 1556